contact:dominique.lefevre@mio.osupytheas.fr, maurice.libes@osupytheas.fr, didier.mallarino@osupytheas.fr
Project:EMSO http://www.emso-fr.org/EMSO-France
Depth: 2436.0 m
Title:EMSO Ligure Ouest : Data MII capteur MICROCAT
DateTime_Computer,Latitude,Longitude,Temperature,Conductivity,Pressure,DateTime_Instrument
DateTime_Computer,Latitude,Longitude,degC,S m-1,dbar,DateTime_Instrument
2022-09-02T00:00:05Z,42.805,6.029,13.3002,4.60054,2470.437,2022-9-02T02:01:56Z
2022-09-02T00:03:08Z,42.805,6.029,13.3005,4.60054,2470.437,2022-9-02T02:04:59Z
2022-09-02T00:06:11Z,42.805,6.029,13.3005,4.60049,2470.437,2022-9-02T02:08:02Z
2022-09-02T00:09:14Z,42.805,6.029,13.3005,4.60047,2470.413,2022-9-02T02:11:05Z
2022-09-02T00:12:18Z,42.805,6.029,13.3005,4.60045,2470.45,2022-9-02T02:14:09Z
2022-09-02T00:15:21Z,42.805,6.029,13.3004,4.60049,2470.413,2022-9-02T02:17:12Z
2022-09-02T00:18:24Z,42.805,6.029,13.3002,4.60052,2470.46,2022-9-02T02:20:15Z
2022-09-02T00:21:27Z,42.805,6.029,13.3006,4.60051,2470.437,2022-9-02T02:23:18Z
2022-09-02T00:24:30Z,42.805,6.029,13.3006,4.60054,2470.437,2022-9-02T02:26:21Z
2022-09-02T00:27:33Z,42.805,6.029,13.3005,4.60049,2470.46,2022-9-02T02:29:24Z
2022-09-02T00:30:36Z,42.805,6.029,13.3008,4.60051,2470.437,2022-9-02T02:32:27Z
2022-09-02T00:33:39Z,42.805,6.029,13.3006,4.60047,2470.413,2022-9-02T02:35:30Z
2022-09-02T00:36:42Z,42.805,6.029,13.3004,4.60052,2470.413,2022-9-02T02:38:33Z
2022-09-02T00:39:46Z,42.805,6.029,13.3003,4.60046,2470.46,2022-9-02T02:41:37Z
2022-09-02T00:42:49Z,42.805,6.029,13.3003,4.60048,2470.427,2022-9-02T02:44:40Z
2022-09-02T00:45:52Z,42.805,6.029,13.3004,4.60046,2470.39,2022-9-02T02:47:43Z
2022-09-02T00:48:55Z,42.805,6.029,13.3006,4.60048,2470.437,2022-9-02T02:50:46Z
2022-09-02T00:51:58Z,42.805,6.029,13.3000,4.60047,2470.437,2022-9-02T02:53:49Z
2022-09-02T00:55:01Z,42.805,6.029,13.3007,4.60046,2470.437,2022-9-02T02:56:52Z
2022-09-02T00:58:04Z,42.805,6.029,13.3004,4.60045,2470.413,2022-9-02T02:59:55Z
2022-09-02T01:01:07Z,42.805,6.029,13.3005,4.60046,2470.45,2022-9-02T03:02:58Z
2022-09-02T01:04:10Z,42.805,6.029,13.3002,4.60048,2470.427,2022-9-02T03:06:02Z
2022-09-02T01:07:14Z,42.805,6.029,13.3000,4.60048,2470.413,2022-9-02T03:09:05Z
2022-09-02T01:10:17Z,42.805,6.029,13.3006,4.60047,2470.39,2022-9-02T03:12:08Z
2022-09-02T01:13:20Z,42.805,6.029,13.3006,4.60052,2470.366,2022-9-02T03:15:11Z
2022-09-02T01:16:23Z,42.805,6.029,13.3003,4.60049,2470.39,2022-9-02T03:18:14Z
2022-09-02T01:19:26Z,42.805,6.029,13.3002,4.60049,2470.404,2022-9-02T03:21:17Z
2022-09-02T01:22:29Z,42.805,6.029,13.3006,4.60047,2470.413,2022-9-02T03:24:20Z
2022-09-02T01:25:32Z,42.805,6.029,13.3005,4.60046,2470.413,2022-9-02T03:27:23Z
2022-09-02T01:28:35Z,42.805,6.029,13.3006,4.60045,2470.39,2022-9-02T03:30:26Z
2022-09-02T01:31:39Z,42.805,6.029,13.3006,4.60046,2470.413,2022-9-02T03:33:30Z
2022-09-02T01:34:42Z,42.805,6.029,13.3005,4.60049,2470.404,2022-9-02T03:36:33Z
2022-09-02T01:37:45Z,42.805,6.029,13.3004,4.60046,2470.38,2022-9-02T03:39:36Z
2022-09-02T01:40:48Z,42.805,6.029,13.3007,4.60049,2470.413,2022-9-02T03:42:39Z
2022-09-02T01:43:51Z,42.805,6.029,13.3004,4.60050,2470.404,2022-9-02T03:45:42Z
2022-09-02T01:46:54Z,42.805,6.029,13.3005,4.60055,2470.39,2022-9-02T03:48:45Z
2022-09-02T01:49:57Z,42.805,6.029,13.3004,4.60048,2470.39,2022-9-02T03:51:48Z
2022-09-02T01:53:00Z,42.805,6.029,13.3004,4.60052,2470.38,2022-9-02T03:54:51Z
2022-09-02T01:56:03Z,42.805,6.029,13.3004,4.60046,2470.404,2022-9-02T03:57:55Z
2022-09-02T01:59:07Z,42.805,6.029,13.3004,4.60046,2470.39,2022-9-02T04:00:58Z
2022-09-02T02:02:10Z,42.805,6.029,13.3004,4.60046,2470.366,2022-9-02T04:04:01Z
2022-09-02T02:05:13Z,42.805,6.029,13.3000,4.60044,2470.343,2022-9-02T04:07:04Z
2022-09-02T02:08:16Z,42.805,6.029,13.3003,4.60047,2470.39,2022-9-02T04:10:07Z
2022-09-02T02:11:19Z,42.805,6.029,13.3003,4.60049,2470.366,2022-9-02T04:13:10Z
2022-09-02T02:14:22Z,42.805,6.029,13.3001,4.60049,2470.343,2022-9-02T04:16:13Z
2022-09-02T02:17:25Z,42.805,6.029,13.3005,4.60046,2470.353,2022-9-02T04:19:16Z
2022-09-02T02:20:28Z,42.805,6.029,13.3005,4.60047,2470.343,2022-9-02T04:22:19Z
2022-09-02T02:23:32Z,42.805,6.029,13.3002,4.60051,2470.366,2022-9-02T04:25:23Z
2022-09-02T02:26:35Z,42.805,6.029,13.3004,4.60047,2470.366,2022-9-02T04:28:26Z
2022-09-02T02:29:38Z,42.805,6.029,13.3004,4.60046,2470.366,2022-9-02T04:31:29Z
2022-09-02T02:32:41Z,42.805,6.029,13.3004,4.60049,2470.334,2022-9-02T04:34:32Z
2022-09-02T02:35:44Z,42.805,6.029,13.3004,4.60047,2470.353,2022-9-02T04:37:35Z
2022-09-02T02:38:47Z,42.805,6.029,13.3007,4.60047,2470.38,2022-9-02T04:40:38Z
2022-09-02T02:41:50Z,42.805,6.029,13.3001,4.60046,2470.343,2022-9-02T04:43:41Z
2022-09-02T02:44:53Z,42.805,6.029,13.3001,4.60052,2470.38,2022-9-02T04:46:44Z
2022-09-02T02:47:56Z,42.805,6.029,13.3005,4.60045,2470.343,2022-9-02T04:49:48Z
2022-09-02T02:51:00Z,42.805,6.029,13.3001,4.60046,2470.366,2022-9-02T04:52:51Z
2022-09-02T02:54:03Z,42.805,6.029,13.3004,4.60048,2470.343,2022-9-02T04:55:54Z
2022-09-02T02:57:06Z,42.805,6.029,13.3006,4.60047,2470.366,2022-9-02T04:58:57Z
2022-09-02T03:00:09Z,42.805,6.029,13.3003,4.60046,2470.343,2022-9-02T05:02:00Z
2022-09-02T03:03:12Z,42.805,6.029,13.3002,4.60046,2470.357,2022-9-02T05:05:03Z
2022-09-02T03:06:15Z,42.805,6.029,13.3006,4.60050,2470.357,2022-9-02T05:08:06Z
2022-09-02T03:09:18Z,42.805,6.029,13.3003,4.60046,2470.334,2022-9-02T05:11:09Z
2022-09-02T03:12:21Z,42.805,6.029,13.3004,4.60052,2470.297,2022-9-02T05:14:12Z
2022-09-02T03:15:25Z,42.805,6.029,13.3000,4.60049,2470.32,2022-9-02T05:17:16Z
2022-09-02T03:18:28Z,42.805,6.029,13.3004,4.60047,2470.32,2022-9-02T05:20:19Z
2022-09-02T03:21:31Z,42.805,6.029,13.3003,4.60046,2470.32,2022-9-02T05:23:22Z
2022-09-02T03:24:34Z,42.805,6.029,13.3008,4.60051,2470.32,2022-9-02T05:26:25Z
2022-09-02T03:27:37Z,42.805,6.029,13.3007,4.60050,2470.32,2022-9-02T05:29:28Z
2022-09-02T03:30:40Z,42.805,6.029,13.3000,4.60047,2470.334,2022-9-02T05:32:31Z
2022-09-02T03:33:43Z,42.805,6.029,13.3006,4.60047,2470.32,2022-9-02T05:35:34Z
2022-09-02T03:36:46Z,42.805,6.029,13.2999,4.60046,2470.32,2022-9-02T05:38:37Z
2022-09-02T03:39:49Z,42.805,6.029,13.3004,4.60046,2470.32,2022-9-02T05:41:41Z
2022-09-02T03:42:53Z,42.805,6.029,13.3003,4.60046,2470.32,2022-9-02T05:44:44Z
2022-09-02T03:45:56Z,42.805,6.029,13.3006,4.60049,2470.357,2022-9-02T05:47:47Z
2022-09-02T03:48:59Z,42.805,6.029,13.3004,4.60046,2470.343,2022-9-02T05:50:50Z
2022-09-02T03:52:02Z,42.805,6.029,13.3000,4.60048,2470.334,2022-9-02T05:53:53Z
2022-09-02T03:55:05Z,42.805,6.029,13.3005,4.60047,2470.343,2022-9-02T05:56:56Z
2022-09-02T03:58:08Z,42.805,6.029,13.3006,4.60051,2470.297,2022-9-02T05:59:59Z
2022-09-02T04:01:11Z,42.805,6.029,13.3003,4.60052,2470.297,2022-9-02T06:03:02Z
2022-09-02T04:04:14Z,42.805,6.029,13.3001,4.60050,2470.32,2022-9-02T06:06:05Z
2022-09-02T04:07:18Z,42.805,6.029,13.3006,4.60049,2470.31,2022-9-02T06:09:09Z
2022-09-02T04:10:21Z,42.805,6.029,13.3004,4.60049,2470.297,2022-9-02T06:12:12Z
2022-09-02T04:13:24Z,42.805,6.029,13.3004,4.60047,2470.334,2022-9-02T06:15:15Z
2022-09-02T04:16:27Z,42.805,6.029,13.3006,4.60047,2470.334,2022-9-02T06:18:18Z
2022-09-02T04:19:30Z,42.805,6.029,13.3004,4.60048,2470.297,2022-9-02T06:21:21Z
2022-09-02T04:22:33Z,42.805,6.029,13.3000,4.60049,2470.297,2022-9-02T06:24:24Z
2022-09-02T04:25:36Z,42.805,6.029,13.3004,4.60050,2470.297,2022-9-02T06:27:27Z
2022-09-02T04:28:39Z,42.805,6.029,13.3006,4.60049,2470.287,2022-9-02T06:30:30Z
2022-09-02T04:31:42Z,42.805,6.029,13.3006,4.60047,2470.31,2022-9-02T06:33:33Z
2022-09-02T04:34:46Z,42.805,6.029,13.3004,4.60044,2470.287,2022-9-02T06:36:37Z
2022-09-02T04:37:49Z,42.805,6.029,13.3005,4.60046,2470.273,2022-9-02T06:39:40Z
2022-09-02T04:40:52Z,42.805,6.029,13.3007,4.60045,2470.297,2022-9-02T06:42:43Z
2022-09-02T04:43:55Z,42.805,6.029,13.3006,4.60044,2470.31,2022-9-02T06:45:46Z
2022-09-02T04:46:58Z,42.805,6.029,13.3004,4.60043,2470.273,2022-9-02T06:48:49Z
2022-09-02T04:50:01Z,42.805,6.029,13.3009,4.60052,2470.32,2022-9-02T06:51:52Z
2022-09-02T04:53:04Z,42.805,6.029,13.3003,4.60044,2470.31,2022-9-02T06:54:55Z
2022-09-02T04:56:07Z,42.805,6.029,13.3004,4.60044,2470.297,2022-9-02T06:57:58Z
2022-09-02T04:59:10Z,42.805,6.029,13.3003,4.60052,2470.287,2022-9-02T07:01:02Z
2022-09-02T05:02:14Z,42.805,6.029,13.3003,4.60051,2470.283,2022-9-02T07:04:05Z
2022-09-02T05:05:17Z,42.805,6.029,13.3001,4.60048,2470.32,2022-9-02T07:07:08Z
2022-09-02T05:08:20Z,42.805,6.029,13.3004,4.60044,2470.297,2022-9-02T07:10:11Z
2022-09-02T05:11:23Z,42.805,6.029,13.3006,4.60047,2470.297,2022-9-02T07:13:14Z
2022-09-02T05:14:26Z,42.805,6.029,13.3003,4.60046,2470.297,2022-9-02T07:16:17Z
2022-09-02T05:17:29Z,42.805,6.029,13.3004,4.60049,2470.273,2022-9-02T07:19:20Z
2022-09-02T05:20:32Z,42.805,6.029,13.3004,4.60049,2470.297,2022-9-02T07:22:23Z
2022-09-02T05:23:35Z,42.805,6.029,13.3006,4.60047,2470.297,2022-9-02T07:25:26Z
2022-09-02T05:26:39Z,42.805,6.029,13.3008,4.60053,2470.32,2022-9-02T07:28:30Z
2022-09-02T05:29:42Z,42.805,6.029,13.3005,4.60046,2470.31,2022-9-02T07:31:33Z
2022-09-02T05:32:45Z,42.805,6.029,13.3003,4.60046,2470.297,2022-9-02T07:34:36Z
2022-09-02T05:35:48Z,42.805,6.029,13.3003,4.60044,2470.31,2022-9-02T07:37:39Z
2022-09-02T05:38:51Z,42.805,6.029,13.3006,4.60046,2470.31,2022-9-02T07:40:42Z
2022-09-02T05:41:54Z,42.805,6.029,13.3003,4.60050,2470.273,2022-9-02T07:43:45Z
2022-09-02T05:44:57Z,42.805,6.029,13.3004,4.60049,2470.273,2022-9-02T07:46:48Z
2022-09-02T05:48:00Z,42.805,6.029,13.3004,4.60046,2470.31,2022-9-02T07:49:51Z
2022-09-02T05:51:04Z,42.805,6.029,13.3005,4.60049,2470.297,2022-9-02T07:52:55Z
2022-09-02T05:54:07Z,42.805,6.029,13.3006,4.60051,2470.273,2022-9-02T07:55:58Z
2022-09-02T05:57:10Z,42.805,6.029,13.3004,4.60049,2470.31,2022-9-02T07:59:01Z
2022-09-02T06:00:13Z,42.805,6.029,13.3004,4.60051,2470.287,2022-9-02T08:02:04Z
2022-09-02T06:03:16Z,42.805,6.029,13.3002,4.60052,2470.297,2022-9-02T08:05:07Z
2022-09-02T06:06:19Z,42.805,6.029,13.2998,4.60052,2470.273,2022-9-02T08:08:10Z
2022-09-02T06:09:22Z,42.805,6.029,13.3001,4.60052,2470.273,2022-9-02T08:11:13Z
2022-09-02T06:12:25Z,42.805,6.029,13.3006,4.60045,2470.287,2022-9-02T08:14:16Z
2022-09-02T06:15:28Z,42.805,6.029,13.3005,4.60047,2470.32,2022-9-02T08:17:19Z
2022-09-02T06:18:32Z,42.805,6.029,13.3002,4.60046,2470.297,2022-9-02T08:20:23Z
2022-09-02T06:21:35Z,42.805,6.029,13.3005,4.60047,2470.297,2022-9-02T08:23:26Z
2022-09-02T06:24:38Z,42.805,6.029,13.3006,4.60047,2470.32,2022-9-02T08:26:29Z
2022-09-02T06:27:41Z,42.805,6.029,13.3002,4.60049,2470.297,2022-9-02T08:29:32Z
2022-09-02T06:30:44Z,42.805,6.029,13.3004,4.60050,2470.334,2022-9-02T08:32:35Z
2022-09-02T06:33:47Z,42.805,6.029,13.3004,4.60052,2470.32,2022-9-02T08:35:38Z
2022-09-02T06:36:50Z,42.805,6.029,13.3003,4.60047,2470.32,2022-9-02T08:38:41Z
2022-09-02T06:39:53Z,42.805,6.029,13.3004,4.60047,2470.297,2022-9-02T08:41:44Z
2022-09-02T06:42:56Z,42.805,6.029,13.3004,4.60046,2470.31,2022-9-02T08:44:48Z
2022-09-02T06:46:00Z,42.805,6.029,13.3001,4.60045,2470.334,2022-9-02T08:47:51Z
2022-09-02T06:49:03Z,42.805,6.029,13.3007,4.60047,2470.32,2022-9-02T08:50:54Z
2022-09-02T06:52:06Z,42.805,6.029,13.3003,4.60047,2470.334,2022-9-02T08:53:57Z
2022-09-02T06:55:09Z,42.805,6.029,13.3004,4.60049,2470.343,2022-9-02T08:57:00Z
2022-09-02T06:58:12Z,42.805,6.029,13.3000,4.60048,2470.334,2022-9-02T09:00:03Z
2022-09-02T07:01:15Z,42.805,6.029,13.3007,4.60046,2470.334,2022-9-02T09:03:06Z
2022-09-02T07:04:18Z,42.805,6.029,13.3004,4.60047,2470.297,2022-9-02T09:06:09Z
2022-09-02T07:07:21Z,42.805,6.029,13.3008,4.60046,2470.297,2022-9-02T09:09:12Z
2022-09-02T07:10:25Z,42.805,6.029,13.3006,4.60049,2470.32,2022-9-02T09:12:16Z
2022-09-02T07:13:28Z,42.805,6.029,13.3002,4.60046,2470.32,2022-9-02T09:15:19Z
2022-09-02T07:16:31Z,42.805,6.029,13.3004,4.60046,2470.32,2022-9-02T09:18:22Z
2022-09-02T07:19:34Z,42.805,6.029,13.3004,4.60049,2470.343,2022-9-02T09:21:25Z
2022-09-02T07:22:37Z,42.805,6.029,13.3004,4.60051,2470.32,2022-9-02T09:24:28Z
2022-09-02T07:25:40Z,42.805,6.029,13.3000,4.60050,2470.334,2022-9-02T09:27:31Z
2022-09-02T07:28:43Z,42.805,6.029,13.3000,4.60050,2470.334,2022-9-02T09:30:34Z
2022-09-02T07:31:46Z,42.805,6.029,13.3003,4.60047,2470.343,2022-9-02T09:33:37Z
2022-09-02T07:34:49Z,42.805,6.029,13.3009,4.60046,2470.38,2022-9-02T09:36:41Z
2022-09-02T07:37:53Z,42.805,6.029,13.3005,4.60051,2470.32,2022-9-02T09:39:44Z
2022-09-02T07:40:56Z,42.805,6.029,13.3006,4.60058,2470.31,2022-9-02T09:42:47Z
2022-09-02T07:43:59Z,42.805,6.029,13.3004,4.60052,2470.366,2022-9-02T09:45:50Z
2022-09-02T07:47:02Z,42.805,6.029,13.3003,4.60050,2470.343,2022-9-02T09:48:53Z
2022-09-02T07:50:05Z,42.805,6.029,13.3003,4.60047,2470.38,2022-9-02T09:51:56Z
2022-09-02T07:53:08Z,42.805,6.029,13.3003,4.60047,2470.366,2022-9-02T09:54:59Z
2022-09-02T07:56:11Z,42.805,6.029,13.3007,4.60049,2470.366,2022-9-02T09:58:02Z
2022-09-02T07:59:14Z,42.805,6.029,13.3006,4.60057,2470.343,2022-9-02T10:01:05Z
2022-09-02T08:02:18Z,42.805,6.029,13.3003,4.60049,2470.366,2022-9-02T10:04:09Z
2022-09-02T08:05:21Z,42.805,6.029,13.3003,4.60049,2470.366,2022-9-02T10:07:12Z
2022-09-02T08:08:24Z,42.805,6.029,13.3001,4.60049,2470.343,2022-9-02T10:10:15Z
2022-09-02T08:11:27Z,42.805,6.029,13.3006,4.60049,2470.366,2022-9-02T10:13:18Z
2022-09-02T08:14:30Z,42.805,6.029,13.3007,4.60049,2470.39,2022-9-02T10:16:21Z
2022-09-02T08:17:33Z,42.805,6.029,13.3004,4.60049,2470.366,2022-9-02T10:19:24Z
2022-09-02T08:20:36Z,42.805,6.029,13.3006,4.60050,2470.39,2022-9-02T10:22:27Z
2022-09-02T08:23:39Z,42.805,6.029,13.3006,4.60049,2470.39,2022-9-02T10:25:30Z
2022-09-02T08:26:42Z,42.805,6.029,13.3003,4.60047,2470.357,2022-9-02T10:28:34Z
2022-09-02T08:29:46Z,42.805,6.029,13.3001,4.60056,2470.38,2022-9-02T10:31:37Z
2022-09-02T08:32:49Z,42.805,6.029,13.3005,4.60049,2470.404,2022-9-02T10:34:40Z
2022-09-02T08:35:52Z,42.805,6.029,13.3000,4.60049,2470.39,2022-9-02T10:37:43Z
2022-09-02T08:38:55Z,42.805,6.029,13.3006,4.60052,2470.366,2022-9-02T10:40:46Z
2022-09-02T08:41:58Z,42.805,6.029,13.3004,4.60053,2470.366,2022-9-02T10:43:49Z
2022-09-02T08:45:01Z,42.805,6.029,13.3005,4.60053,2470.38,2022-9-02T10:46:52Z
2022-09-02T08:48:04Z,42.805,6.029,13.3000,4.60052,2470.427,2022-9-02T10:49:55Z
2022-09-02T08:51:07Z,42.805,6.029,13.3006,4.60047,2470.427,2022-9-02T10:52:58Z
2022-09-02T08:54:11Z,42.805,6.029,13.3004,4.60050,2470.404,2022-9-02T10:56:02Z
2022-09-02T08:57:14Z,42.805,6.029,13.3006,4.60055,2470.427,2022-9-02T10:59:05Z
2022-09-02T09:00:17Z,42.805,6.029,13.3004,4.60059,2470.413,2022-9-02T11:02:08Z
2022-09-02T09:03:20Z,42.805,6.029,13.3004,4.60054,2470.427,2022-9-02T11:05:11Z
2022-09-02T09:06:23Z,42.805,6.029,13.3004,4.60055,2470.39,2022-9-02T11:08:14Z
2022-09-02T09:09:26Z,42.805,6.029,13.3004,4.60053,2470.404,2022-9-02T11:11:17Z
2022-09-02T09:12:29Z,42.805,6.029,13.3004,4.60056,2470.413,2022-9-02T11:14:20Z
2022-09-02T09:15:32Z,42.805,6.029,13.3005,4.60059,2470.366,2022-9-02T11:17:23Z
2022-09-02T09:18:36Z,42.805,6.029,13.3005,4.60052,2470.413,2022-9-02T11:20:27Z
2022-09-02T09:21:39Z,42.805,6.029,13.3003,4.60054,2470.39,2022-9-02T11:23:30Z
2022-09-02T09:24:42Z,42.805,6.029,13.3007,4.60055,2470.413,2022-9-02T11:26:33Z
2022-09-02T09:27:45Z,42.805,6.029,13.3005,4.60056,2470.413,2022-9-02T11:29:36Z
2022-09-02T09:30:48Z,42.805,6.029,13.3003,4.60057,2470.39,2022-9-02T11:32:39Z
2022-09-02T09:33:51Z,42.805,6.029,13.3007,4.60056,2470.413,2022-9-02T11:35:42Z
2022-09-02T09:36:54Z,42.805,6.029,13.3005,4.60057,2470.404,2022-9-02T11:38:45Z
2022-09-02T09:39:57Z,42.805,6.029,13.3006,4.60062,2470.413,2022-9-02T11:41:48Z
2022-09-02T09:43:00Z,42.805,6.029,13.3008,4.60058,2470.427,2022-9-02T11:44:52Z
2022-09-02T09:46:04Z,42.805,6.029,13.3006,4.60057,2470.366,2022-9-02T11:47:55Z
2022-09-02T09:49:07Z,42.805,6.029,13.3005,4.60054,2470.39,2022-9-02T11:50:58Z
2022-09-02T09:52:10Z,42.805,6.029,13.3007,4.60060,2470.39,2022-9-02T11:54:01Z
2022-09-02T09:55:13Z,42.805,6.029,13.3003,4.60059,2470.437,2022-9-02T11:57:04Z
2022-09-02T09:58:16Z,42.805,6.029,13.3006,4.60059,2470.427,2022-9-02T12:00:07Z
2022-09-02T10:01:19Z,42.805,6.029,13.3006,4.60062,2470.437,2022-9-02T12:03:10Z
2022-09-02T10:04:22Z,42.805,6.029,13.3006,4.60064,2470.427,2022-9-02T12:06:13Z
2022-09-02T10:07:25Z,42.805,6.029,13.3008,4.60059,2470.39,2022-9-02T12:09:17Z
2022-09-02T10:10:29Z,42.805,6.029,13.3009,4.60059,2470.427,2022-9-02T12:12:20Z
2022-09-02T10:13:32Z,42.805,6.029,13.3008,4.60054,2470.437,2022-9-02T12:15:23Z
2022-09-02T10:16:35Z,42.805,6.029,13.3006,4.60057,2470.413,2022-9-02T12:18:26Z
2022-09-02T10:19:38Z,42.805,6.029,13.3006,4.60069,2470.39,2022-9-02T12:21:29Z
2022-09-02T10:22:41Z,42.805,6.029,13.3009,4.60059,2470.437,2022-9-02T12:24:32Z
2022-09-02T10:25:44Z,42.805,6.029,13.3006,4.60057,2470.413,2022-9-02T12:27:35Z
2022-09-02T10:28:47Z,42.805,6.029,13.3009,4.60050,2470.427,2022-9-02T12:30:38Z
2022-09-02T10:31:50Z,42.805,6.029,13.3007,4.60061,2470.437,2022-9-02T12:33:41Z
2022-09-02T10:34:54Z,42.805,6.029,13.3009,4.60064,2470.437,2022-9-02T12:36:45Z
2022-09-02T10:37:57Z,42.805,6.029,13.3006,4.60062,2470.413,2022-9-02T12:39:48Z
2022-09-02T10:41:00Z,42.805,6.029,13.3011,4.60060,2470.427,2022-9-02T12:42:51Z
2022-09-02T10:44:03Z,42.805,6.029,13.3007,4.60062,2470.427,2022-9-02T12:45:54Z
2022-09-02T10:47:06Z,42.805,6.029,13.3004,4.60059,2470.474,2022-9-02T12:48:57Z
2022-09-02T10:50:09Z,42.805,6.029,13.3005,4.60062,2470.45,2022-9-02T12:52:00Z
2022-09-02T10:53:12Z,42.805,6.029,13.3007,4.60052,2470.413,2022-9-02T12:55:03Z
2022-09-02T10:56:15Z,42.805,6.029,13.3004,4.60069,2470.413,2022-9-02T12:58:06Z
2022-09-02T10:59:19Z,42.805,6.029,13.3009,4.60062,2470.437,2022-9-02T13:01:10Z
2022-09-02T11:02:22Z,42.805,6.029,13.3007,4.60052,2470.413,2022-9-02T13:04:13Z
2022-09-02T11:05:25Z,42.805,6.029,13.3008,4.60059,2470.45,2022-9-02T13:07:16Z
2022-09-02T11:08:28Z,42.805,6.029,13.3008,4.60058,2470.39,2022-9-02T13:10:19Z
2022-09-02T11:11:31Z,42.805,6.029,13.3010,4.60059,2470.427,2022-9-02T13:13:22Z
2022-09-02T11:14:34Z,42.805,6.029,13.3006,4.60057,2470.404,2022-9-02T13:16:25Z
2022-09-02T11:17:37Z,42.805,6.029,13.3009,4.60054,2470.413,2022-9-02T13:19:28Z
2022-09-02T11:20:40Z,42.805,6.029,13.3010,4.60050,2470.437,2022-9-02T13:22:31Z
2022-09-02T11:23:43Z,42.805,6.029,13.3005,4.60058,2470.413,2022-9-02T13:25:35Z
2022-09-02T11:26:47Z,42.805,6.029,13.3004,4.60062,2470.413,2022-9-02T13:28:38Z
2022-09-02T11:29:50Z,42.805,6.029,13.3002,4.60049,2470.46,2022-9-02T13:31:41Z
2022-09-02T11:32:53Z,42.805,6.029,13.3004,4.60049,2470.45,2022-9-02T13:34:44Z
2022-09-02T11:35:56Z,42.805,6.029,13.3006,4.60062,2470.413,2022-9-02T13:37:47Z
2022-09-02T11:38:59Z,42.805,6.029,13.3011,4.60064,2470.413,2022-9-02T13:40:50Z
2022-09-02T11:42:02Z,42.805,6.029,13.3009,4.60062,2470.437,2022-9-02T13:43:53Z
2022-09-02T11:45:05Z,42.805,6.029,13.3006,4.60054,2470.45,2022-9-02T13:46:56Z
2022-09-02T11:48:08Z,42.805,6.029,13.3006,4.60058,2470.427,2022-9-02T13:50:00Z
2022-09-02T11:51:12Z,42.805,6.029,13.3006,4.60061,2470.45,2022-9-02T13:53:03Z
2022-09-02T11:54:15Z,42.805,6.029,13.3005,4.60077,2470.427,2022-9-02T13:56:06Z
2022-09-02T11:57:18Z,42.805,6.029,13.3006,4.60073,2470.427,2022-9-02T13:59:09Z
2022-09-02T12:00:21Z,42.805,6.029,13.3006,4.60067,2470.413,2022-9-02T14:02:12Z
2022-09-02T12:03:24Z,42.805,6.029,13.3009,4.60065,2470.45,2022-9-02T14:05:15Z
2022-09-02T12:06:27Z,42.805,6.029,13.3006,4.60057,2470.404,2022-9-02T14:08:18Z
2022-09-02T12:09:30Z,42.805,6.029,13.3003,4.60075,2470.404,2022-9-02T14:11:21Z
2022-09-02T12:12:33Z,42.805,6.029,13.3006,4.60066,2470.427,2022-9-02T14:14:25Z
2022-09-02T12:15:37Z,42.805,6.029,13.3007,4.60052,2470.45,2022-9-02T14:17:28Z
2022-09-02T12:18:40Z,42.805,6.029,13.3005,4.60051,2470.45,2022-9-02T14:20:31Z
2022-09-02T12:21:43Z,42.805,6.029,13.3010,4.60051,2470.413,2022-9-02T14:23:34Z
2022-09-02T12:24:46Z,42.805,6.029,13.3008,4.60046,2470.39,2022-9-02T14:26:37Z
2022-09-02T12:27:49Z,42.805,6.029,13.3010,4.60046,2470.39,2022-9-02T14:29:40Z
2022-09-02T12:30:52Z,42.805,6.029,13.3008,4.60049,2470.39,2022-9-02T14:32:43Z
2022-09-02T12:33:55Z,42.805,6.029,13.3011,4.60049,2470.39,2022-9-02T14:35:46Z
2022-09-02T12:36:58Z,42.805,6.029,13.3009,4.60050,2470.413,2022-9-02T14:38:50Z
2022-09-02T12:40:02Z,42.805,6.029,13.3007,4.60052,2470.427,2022-9-02T14:41:53Z
2022-09-02T12:43:05Z,42.805,6.029,13.3005,4.60049,2470.404,2022-9-02T14:44:56Z
2022-09-02T12:46:08Z,42.805,6.029,13.3004,4.60051,2470.404,2022-9-02T14:47:59Z
2022-09-02T12:49:11Z,42.805,6.029,13.3006,4.60046,2470.38,2022-9-02T14:51:02Z
2022-09-02T12:52:14Z,42.805,6.029,13.3009,4.60048,2470.404,2022-9-02T14:54:05Z
2022-09-02T12:55:17Z,42.805,6.029,13.3007,4.60064,2470.38,2022-9-02T14:57:08Z
2022-09-02T12:58:20Z,42.805,6.029,13.3008,4.60049,2470.366,2022-9-02T15:00:11Z
2022-09-02T13:01:23Z,42.805,6.029,13.3006,4.60052,2470.437,2022-9-02T15:03:15Z
2022-09-02T13:04:27Z,42.805,6.029,13.3004,4.60058,2470.38,2022-9-02T15:06:18Z
2022-09-02T13:07:30Z,42.805,6.029,13.3003,4.60064,2470.366,2022-9-02T15:09:21Z
2022-09-02T13:10:33Z,42.805,6.029,13.3005,4.60063,2470.39,2022-9-02T15:12:24Z
2022-09-02T13:13:36Z,42.805,6.029,13.3008,4.60053,2470.413,2022-9-02T15:15:27Z
2022-09-02T13:16:39Z,42.805,6.029,13.3003,4.60049,2470.366,2022-9-02T15:18:30Z
2022-09-02T13:19:42Z,42.805,6.029,13.3009,4.60055,2470.404,2022-9-02T15:21:33Z
2022-09-02T13:22:45Z,42.805,6.029,13.3006,4.60059,2470.404,2022-9-02T15:24:36Z
2022-09-02T13:25:48Z,42.805,6.029,13.3030,4.60054,2470.366,2022-9-02T15:27:39Z
2022-09-02T13:28:52Z,42.805,6.029,13.3007,4.60081,2470.357,2022-9-02T15:30:43Z
2022-09-02T13:31:55Z,42.805,6.029,13.3004,4.60059,2470.404,2022-9-02T15:33:46Z
2022-09-02T13:34:58Z,42.805,6.029,13.3006,4.60062,2470.366,2022-9-02T15:36:49Z
2022-09-02T13:38:01Z,42.805,6.029,13.3009,4.60061,2470.366,2022-9-02T15:39:52Z
2022-09-02T13:41:04Z,42.805,6.029,13.3007,4.60064,2470.404,2022-9-02T15:42:55Z
2022-09-02T13:44:07Z,42.805,6.029,13.3004,4.60059,2470.343,2022-9-02T15:45:58Z
2022-09-02T13:47:10Z,42.805,6.029,13.3010,4.60059,2470.366,2022-9-02T15:49:01Z
2022-09-02T13:50:13Z,42.805,6.029,13.3006,4.60138,2470.343,2022-9-02T15:52:04Z
2022-09-02T13:53:16Z,42.805,6.029,13.3049,4.60141,2470.38,2022-9-02T15:55:08Z
2022-09-02T13:56:20Z,42.805,6.029,13.3052,4.60096,2470.366,2022-9-02T15:58:11Z
2022-09-02T13:59:23Z,42.805,6.029,13.3010,4.60099,2470.343,2022-9-02T16:01:14Z
2022-09-02T14:02:26Z,42.805,6.029,13.3010,4.60127,2470.343,2022-9-02T16:04:17Z
2022-09-02T14:05:29Z,42.805,6.029,13.3006,4.60116,2470.334,2022-9-02T16:07:20Z
2022-09-02T14:08:32Z,42.805,6.029,13.3014,4.60221,2470.343,2022-9-02T16:10:23Z
2022-09-02T14:11:35Z,42.805,6.029,13.3012,4.60119,2470.38,2022-9-02T16:13:26Z
2022-09-02T14:14:38Z,42.805,6.029,13.3051,4.60086,2470.334,2022-9-02T16:16:29Z
2022-09-02T14:17:41Z,42.805,6.029,13.3116,4.60147,2470.38,2022-9-02T16:19:33Z
2022-09-02T14:20:45Z,42.805,6.029,13.3031,4.60085,2470.38,2022-9-02T16:22:36Z
2022-09-02T14:23:48Z,42.805,6.029,13.3078,4.60085,2470.357,2022-9-02T16:25:39Z
2022-09-02T14:26:51Z,42.805,6.029,13.3214,4.60073,2470.357,2022-9-02T16:28:42Z
2022-09-02T14:29:54Z,42.805,6.029,13.3120,4.60068,2470.334,2022-9-02T16:31:45Z
2022-09-02T14:32:57Z,42.805,6.029,13.3115,4.60070,2470.343,2022-9-02T16:34:48Z
2022-09-02T14:36:00Z,42.805,6.029,13.3056,4.60073,2470.334,2022-9-02T16:37:51Z
2022-09-02T14:39:03Z,42.805,6.029,13.3050,4.60074,2470.366,2022-9-02T16:40:54Z
2022-09-02T14:42:06Z,42.805,6.029,13.3075,4.60069,2470.38,2022-9-02T16:43:58Z
2022-09-02T14:45:10Z,42.805,6.029,13.3070,4.60062,2470.357,2022-9-02T16:47:01Z
2022-09-02T14:48:13Z,42.805,6.029,13.3055,4.60066,2470.357,2022-9-02T16:50:04Z
2022-09-02T14:51:16Z,42.805,6.029,13.3046,4.60059,2470.334,2022-9-02T16:53:07Z
2022-09-02T14:54:19Z,42.805,6.029,13.3040,4.60064,2470.31,2022-9-02T16:56:10Z
2022-09-02T14:57:22Z,42.805,6.029,13.3053,4.60064,2470.357,2022-9-02T16:59:13Z
2022-09-02T15:00:25Z,42.805,6.029,13.3068,4.60069,2470.357,2022-9-02T17:02:16Z
2022-09-02T15:03:28Z,42.805,6.029,13.3046,4.60074,2470.297,2022-9-02T17:05:19Z
2022-09-02T15:06:31Z,42.805,6.029,13.3048,4.60090,2470.297,2022-9-02T17:08:23Z
2022-09-02T15:09:35Z,42.805,6.029,13.3070,4.60110,2470.32,2022-9-02T17:11:26Z
2022-09-02T15:12:38Z,42.805,6.029,13.3076,4.60118,2470.334,2022-9-02T17:14:29Z